Odessa, TX

12:49 PM CDT on May 26, 2017 (GMT -0500)
Odessa-Schlemeyer

Weather History for KODO - September, 2013

Change the Weather History Date:

Sunday, September 15, 2013

  Actual Average (KMAF) Record (KMAF)
Temperature  
Mean Temperature 79 °F -  
Max Temperature 91 °F 87 °F 100 °F (1965)
Min Temperature 68 °F 62 °F 47 °F (1993)
Cooling Degree Days 14    
Growing Degree Days 29 (Base 50)    
Moisture  
Dew Point 52 °F    
Average Humidity 40    
Maximum Humidity 63    
Minimum Humidity 23    
Precipitation  
Precipitation 0.00 in - - ()
Sea Level Pressure  
Sea Level Pressure 29.90 in    
Wind  
Wind Speed 10 mph (SSE)    
Max Wind Speed 17 mph    
Max Gust Speed 26 mph    
Visibility 10 miles    
Events      
Averages and records for this station are not official NWS values.
T = Trace of Precipitation, MM = Missing Value Source: NWS Daily Summary

Daily Weather History Graph

Daily Weather History Graph

Search for Another Location

Airport or City:

Trip Planner

Search our weather history database for the weather conditions in past years. The results will help you decide how hot, cold, wet, or windy it might be!

Date:

Astronomy

Sep. 15, 2013 Rise Set
Actual Time 7:33 AM CDT 7:55 PM CDT
Civil Twilight 7:09 AM CDT 8:19 PM CDT
Nautical Twilight 6:40 AM CDT 8:48 PM CDT
Astronomical Twilight 6:11 AM CDT 9:17 PM CDT
Moon 5:13 PM CDT (9/15) 3:26 AM CDT (9/15)
Length of Visible Light 13h 10m
Length of Day
12h 21m
Waxing Gibbous, 82% of the Moon is Illuminated
Sep 15
Waxing Gibbous
Sep 19
Full
Sep 26
Last Quarter
Oct 4
New
Oct 11
First Quarter

Hourly Weather History & Observations

Time (CDT) Temp. Heat Index Dew Point Humidity Pressure Visibility Wind Dir Wind Speed Gust Speed Precip Events Conditions
12:53 AM 75.9 °F - 48.0 °F 37% 29.86 in 10.0 mi SSE 5.8 mph - N/A   Clear
1:53 AM 75.0 °F - 48.0 °F 38% 29.86 in 10.0 mi SSE 8.1 mph - N/A   Clear
2:53 AM 73.9 °F - 48.9 °F 41% 29.85 in 10.0 mi SSE 10.4 mph - N/A   Clear
3:53 AM 73.0 °F - 50.0 °F 44% 29.83 in 10.0 mi SSE 11.5 mph - N/A   Clear
4:53 AM 72.0 °F - 51.1 °F 48% 29.85 in 10.0 mi SSE 9.2 mph - N/A   Clear
5:53 AM 71.1 °F - 53.1 °F 53% 29.86 in 10.0 mi SSE 9.2 mph - N/A   Clear
6:53 AM 70.0 °F - 55.9 °F 61% 29.88 in 10.0 mi SSE 6.9 mph - N/A   Clear
7:53 AM 68.0 °F - 55.0 °F 63% 29.91 in 10.0 mi ESE 4.6 mph - N/A   Clear
8:53 AM 71.1 °F - 57.9 °F 63% 29.94 in 10.0 mi SSE 8.1 mph - N/A   Clear
9:53 AM 75.0 °F - 60.1 °F 60% 29.94 in 10.0 mi South 11.5 mph - N/A   Clear
10:53 AM 80.1 °F 80.7 °F 59.0 °F 48% 29.95 in 10.0 mi South 15.0 mph 24.2 mph N/A   Clear
11:53 AM 84.0 °F 83.0 °F 55.9 °F 38% 29.95 in 10.0 mi SSE 10.4 mph 20.7 mph N/A   Clear
12:53 PM 86.0 °F - 51.1 °F 30% 29.94 in 10.0 mi SE 15.0 mph 26.5 mph N/A   Clear
1:53 PM 88.0 °F - 48.0 °F 25% 29.91 in 10.0 mi SSE 12.7 mph 26.5 mph N/A   Clear
2:53 PM 89.1 °F - 50.0 °F 26% 29.90 in 10.0 mi South 10.4 mph 19.6 mph N/A   Clear
3:53 PM 89.1 °F - 48.9 °F 25% 29.88 in 10.0 mi SE 12.7 mph - N/A   Clear
4:53 PM 90.0 °F - 46.9 °F 23% 29.87 in 10.0 mi ESE 11.5 mph 21.9 mph N/A   Clear
5:53 PM 90.0 °F - 48.0 °F 24% 29.86 in 10.0 mi SE 17.3 mph 24.2 mph N/A   Clear
6:53 PM 88.0 °F - 48.0 °F 25% 29.88 in 10.0 mi SSE 16.1 mph 23.0 mph N/A   Clear
7:53 PM 86.0 °F - 50.0 °F 29% 29.90 in 10.0 mi SE 15.0 mph - N/A   Clear
8:53 PM 84.0 °F - 51.1 °F 32% 29.93 in 10.0 mi SSE 10.4 mph - N/A   Clear
9:53 PM 82.9 °F 81.8 °F 53.1 °F 36% 29.94 in 10.0 mi SSE 9.2 mph - N/A   Clear
10:53 PM 82.0 °F 81.4 °F 55.0 °F 39% 29.95 in 10.0 mi SSE 13.8 mph - N/A   Clear
11:53 PM 80.1 °F 80.2 °F 55.9 °F 43% 29.95 in 10.0 mi SSE 11.5 mph - N/A   Clear